• In Belarus
  • List of Countries
  • For 7 days
  • Water Temperature
  • Satellite Maps
  • Weather Map
  • Weather Widgets
  • user-avatar
    Login

    Hourly Weather Kruglyy

    Today, 17 November, Saturday

    Time Temperature Precipitation Wind Pressure Humidity
    00:00 -3°C° 0 mm 2 mps 767 mmHg 25%
    01:00 -3°C° 0 mm 2 mps 766 mmHg 25%
    02:00 -4°C° 0 mm 2 mps 766 mmHg 24%
    03:00 -4°C° 0 mm 2 mps 766 mmHg 23%
    04:00 -4°C° 0 mm 2 mps 766 mmHg 23%
    05:00 -4°C° 0 mm 2 mps 765 mmHg 23%
    06:00 -4°C° 0 mm 2 mps 765 mmHg 23%
    07:00 -4°C° 0 mm 2 mps 765 mmHg 22%
    08:00 -2°C° 0 mm 1 mps 765 mmHg 22%
    09:00 0°C° 0 mm 1 mps 765 mmHg 20%
    10:00 +1°C° 0 mm 1 mps 765 mmHg 19%
    11:00 +2°C° 0 mm 1 mps 764 mmHg 18%
    12:00 +2°C° 0 mm 1 mps 764 mmHg 19%
    13:00 +2°C° 0 mm 1 mps 763 mmHg 21%
    14:00 +2°C° 0 mm 1 mps 762 mmHg 22%
    15:00 +2°C° 0 mm 1 mps 762 mmHg 23%
    16:00 +1°C° 0 mm 1 mps 761 mmHg 24%
    17:00 -2°C° 0 mm 2 mps 761 mmHg 25%
    18:00 -2°C° 0 mm 2 mps 760 mmHg 26%
    19:00 -2°C° 0 mm 2 mps 760 mmHg 27%
    20:00 -2°C° 0 mm 2 mps 759 mmHg 28%
    21:00 -2°C° 0 mm 3 mps 759 mmHg 29%
    22:00 -4°C° 0 mm 3 mps 758 mmHg 31%
    23:00 -4°C° 0 mm 3 mps 757 mmHg 33%

    Tomorrow, 18 November, Sunday

    Time Temperature Precipitation Wind Pressure Humidity
    00:00 -2°C° 0 mm 3 mps 757 mmHg 34%
    01:00 -3°C° 0 mm 4 mps 756 mmHg 36%
    02:00 -3°C° 0 mm 4 mps 756 mmHg 37%
    03:00 -3°C° 0 mm 4 mps 755 mmHg 39%
    04:00 -3°C° 0 mm 4 mps 754 mmHg 41%
    05:00 -3°C° 0 mm 4 mps 754 mmHg 43%
    06:00 -3°C° 0 mm 4 mps 753 mmHg 46%
    07:00 -3°C° 0 mm 4 mps 753 mmHg 49%
    08:00 -2°C° 0 mm 3 mps 753 mmHg 52%
    09:00 -2°C° 0 mm 3 mps 752 mmHg 54%
    10:00 -1°C° 0 mm 3 mps 752 mmHg 57%
    11:00 -1°C° 0 mm 3 mps 752 mmHg 60%
    12:00 -1°C° 0 mm 3 mps 752 mmHg 61%
    13:00 -1°C° 0 mm 3 mps 752 mmHg 63%
    14:00 -1°C° 0 mm 2 mps 752 mmHg 65%
    15:00 -1°C° 0.1 mm 2 mps 752 mmHg 68%
    16:00 -2°C° 0.1 mm 2 mps 752 mmHg 72%
    17:00 -2°C° 0.1 mm 2 mps 752 mmHg 75%
    18:00 0°C° 0.1 mm 1 mps 752 mmHg 77%
    19:00 0°C° 0.1 mm 1 mps 752 mmHg 79%
    20:00 0°C° 0.1 mm 1 mps 752 mmHg 81%
    21:00 0°C° 0.1 mm 1 mps 753 mmHg 81%
    22:00 0°C° 0.1 mm 1 mps 753 mmHg 82%
    23:00 0°C° 0.1 mm 1 mps 753 mmHg 82%

    Day after tomorrow, 19 November, Monday

    Time Temperature Precipitation Wind Pressure Humidity
    00:00 -2°C° 0.1 mm 0 mps 753 mmHg 82%
    01:00 -2°C° 0.1 mm 0 mps 753 mmHg 82%
    02:00 -2°C° 0.1 mm 0 mps 754 mmHg 82%
    03:00 -2°C° 0 mm 0 mps 754 mmHg 82%
    04:00 -2°C° 0 mm 0 mps 754 mmHg 81%
    05:00 -2°C° 0 mm 0 mps 754 mmHg 81%
    06:00 -1°C° 0 mm 1 mps 754 mmHg 80%
    07:00 -1°C° 0 mm 1 mps 755 mmHg 79%
    08:00 -1°C° 0 mm 1 mps 755 mmHg 78%
    09:00 0°C° 0 mm 1 mps 755 mmHg 73%
    10:00 -1°C° 0 mm 2 mps 756 mmHg 69%
    11:00 -1°C° 0 mm 2 mps 756 mmHg 64%
    12:00 -1°C° 0 mm 2 mps 756 mmHg 64%
    13:00 +1°C° 0 mm 2 mps 756 mmHg 64%
    14:00 +1°C° 0 mm 2 mps 756 mmHg 64%
    15:00 -1°C° 0 mm 2 mps 756 mmHg 67%
    16:00 -2°C° 0 mm 2 mps 756 mmHg 70%
    17:00 -3°C° 0 mm 2 mps 756 mmHg 72%
    18:00 -4°C° 0 mm 3 mps 756 mmHg 72%
    19:00 -4°C° 0 mm 3 mps 756 mmHg 71%
    20:00 -4°C° 0 mm 3 mps 756 mmHg 70%
    21:00 -4°C° 0 mm 3 mps 756 mmHg 68%
    22:00 -4°C° 0 mm 3 mps 756 mmHg 67%
    23:00 -4°C° 0 mm 3 mps 756 mmHg 65%

    20 November, Tuesday

    Time Temperature Precipitation Wind Pressure Humidity
    00:00 -4°C° 0 mm 3 mps 756 mmHg 64%
    01:00 -4°C° 0 mm 3 mps 756 mmHg 63%
    02:00 -4°C° 0 mm 3 mps 756 mmHg 62%
    03:00 -4°C° 0 mm 3 mps 756 mmHg 64%
    04:00 -4°C° 0 mm 3 mps 755 mmHg 65%
    05:00 -4°C° 0 mm 3 mps 755 mmHg 67%
    06:00 -4°C° 0 mm 3 mps 755 mmHg 70%
    07:00 -4°C° 0 mm 3 mps 755 mmHg 73%
    08:00 -4°C° 0 mm 3 mps 755 mmHg 76%
    09:00 -4°C° 0.1 mm 3 mps 754 mmHg 77%
    10:00 -2°C° 0.1 mm 3 mps 754 mmHg 78%
    11:00 -3°C° 0.1 mm 4 mps 754 mmHg 79%
    12:00 -2°C° 0.1 mm 3 mps 754 mmHg 81%
    13:00 -2°C° 0.1 mm 3 mps 753 mmHg 82%
    14:00 -2°C° 0.1 mm 3 mps 753 mmHg 84%
    15:00 -2°C° 0 mm 3 mps 753 mmHg 86%
    16:00 -2°C° 0 mm 3 mps 753 mmHg 88%
    17:00 -2°C° 0 mm 3 mps 752 mmHg 89%
    18:00 -2°C° 0 mm 3 mps 752 mmHg 90%
    19:00 -2°C° 0 mm 2 mps 752 mmHg 90%
    20:00 -2°C° 0 mm 2 mps 752 mmHg 90%
    21:00 -2°C° 0 mm 3 mps 752 mmHg 91%
    22:00 -2°C° 0 mm 3 mps 752 mmHg 91%
    23:00 -4°C° 0 mm 3 mps 752 mmHg 91%

    21 November, Wednesday

    Time Temperature Precipitation Wind Pressure Humidity
    00:00 -4°C° 0 mm 3 mps 752 mmHg 91%
    01:00 -4°C° 0 mm 3 mps 752 mmHg 91%
    02:00 -4°C° 0 mm 3 mps 752 mmHg 91%
    03:00 -4°C° 0 mm 3 mps 752 mmHg 91%
    04:00 -4°C° 0 mm 3 mps 752 mmHg 91%
    05:00 -5°C° 0 mm 3 mps 752 mmHg 91%
    06:00 -5°C° 0 mm 3 mps 752 mmHg 92%
    07:00 -5°C° 0 mm 3 mps 752 mmHg 92%
    08:00 -5°C° 0 mm 3 mps 752 mmHg 93%
    09:00 -4°C° 0 mm 3 mps 752 mmHg 89%
    10:00 -3°C° 0 mm 4 mps 752 mmHg 84%
    11:00 -3°C° 0 mm 4 mps 752 mmHg 80%
    12:00 -2°C° 0 mm 3 mps 752 mmHg 79%
    13:00 -1°C° 0 mm 3 mps 752 mmHg 79%
    14:00 -1°C° 0 mm 3 mps 752 mmHg 78%
    15:00 -2°C° 0 mm 3 mps 753 mmHg 81%
    16:00 -2°C° 0 mm 3 mps 753 mmHg 83%
    17:00 -4°C° 0 mm 3 mps 753 mmHg 85%
    18:00 -2°C° 0 mm 3 mps 753 mmHg 83%
    19:00 -2°C° 0 mm 3 mps 753 mmHg 82%
    20:00 -2°C° 0 mm 3 mps 754 mmHg 80%
    21:00 -2°C° 0 mm 3 mps 754 mmHg 79%
    22:00 -4°C° 0 mm 3 mps 754 mmHg 77%
    23:00 -4°C° 0 mm 3 mps 754 mmHg 76%

    22 November, Thursday

    Time Temperature Precipitation Wind Pressure Humidity
    00:00 -4°C° 0 mm 3 mps 754 mmHg 78%
    01:00 -4°C° 0 mm 3 mps 754 mmHg 79%
    02:00 -4°C° 0 mm 3 mps 754 mmHg 80%
    03:00 -4°C° 0 mm 3 mps 754 mmHg 82%
    04:00 -4°C° 0 mm 3 mps 754 mmHg 84%
    05:00 -4°C° 0 mm 3 mps 754 mmHg 86%
    06:00 -4°C° 0 mm 3 mps 754 mmHg 86%
    07:00 -4°C° 0 mm 3 mps 754 mmHg 86%
    08:00 -4°C° 0 mm 3 mps 754 mmHg 86%
    09:00 -4°C° 0 mm 3 mps 754 mmHg 80%
    10:00 -3°C° 0 mm 4 mps 754 mmHg 75%
    11:00 -3°C° 0 mm 4 mps 754 mmHg 69%
    12:00 -3°C° 0 mm 4 mps 754 mmHg 69%
    13:00 -3°C° 0 mm 4 mps 754 mmHg 69%
    14:00 -3°C° 0 mm 4 mps 754 mmHg 69%
    15:00 -3°C° 0 mm 4 mps 754 mmHg 73%
    16:00 -4°C° 0 mm 4 mps 754 mmHg 77%
    17:00 -4°C° 0 mm 4 mps 754 mmHg 80%
    18:00 -4°C° 0 mm 4 mps 754 mmHg 80%
    19:00 -4°C° 0 mm 4 mps 755 mmHg 80%
    20:00 -4°C° 0 mm 4 mps 755 mmHg 80%
    21:00 -4°C° 0 mm 4 mps 755 mmHg 81%
    22:00 -4°C° 0 mm 3 mps 755 mmHg 82%
    23:00 -4°C° 0 mm 3 mps 756 mmHg 82%
    Show more